This is the latest recevied weather packets stored in our database for station/object CQ0XSM-11. If no packets are shown the sender has not sent any weather packets the latest 10 day(s).
| Time | Temp. | Humidity | Pressure | Rain* | Wind** | Luminosity | Snow |
|---|---|---|---|---|---|---|---|
| 1777681371 | 10.56° C | 98% | 998.8 hPa | 0 mm | - | - | - |
| 1777680750 | 11.11° C | 97% | 998.7 hPa | 0 mm | - | - | - |
| 1777680451 | 11.11° C | 96% | 998.7 hPa | 0 mm | - | - | - |
| 1777680157 | 11.11° C | 95% | 998.6 hPa | 0 mm | - | - | - |
| 1777679823 | 11.11° C | 93% | 998.9 hPa | 0 mm | - | - | - |
| 1777679583 | 11.11° C | 93% | 999 hPa | 0 mm | - | - | - |
| 1777679249 | 11.11° C | 91% | 998.9 hPa | 0 mm | - | - | - |
| 1777678952 | 11.11° C | 92% | 998.9 hPa | 0 mm | - | - | - |
| 1777678359 | 11.11° C | 90% | 999.3 hPa | 0 mm | - | - | - |
| 1777678001 | 11.11° C | 90% | 999.1 hPa | 0 mm | - | - | - |
| 1777677760 | 11.11° C | 90% | 999 hPa | 0 mm | - | - | - |
| 1777677429 | 11.67° C | 89% | 998.9 hPa | 0 mm | - | - | - |
| 1777677140 | 11.67° C | 85% | 998.8 hPa | 0 mm | - | - | - |
| 1777676788 | 11.67° C | 86% | 998.9 hPa | 0 mm | - | - | - |
| 1777676526 | 11.67° C | 88% | 998.9 hPa | 0 mm | - | - | - |
| 1777676189 | 11.67° C | 87% | 998.9 hPa | 0 mm | - | - | - |
| 1777675891 | 11.67° C | 86% | 998.7 hPa | 0 mm | - | - | - |
| 1777675590 | 11.67° C | 85% | 998.9 hPa | 0 mm | - | - | - |
| 1777675289 | 11.67° C | 85% | 998.9 hPa | 0 mm | - | - | - |
| 1777674976 | 11.67° C | 85% | 998.9 hPa | 0 mm | - | - | - |
| 1777674383 | 11.67° C | 86% | 999 hPa | 0 mm | - | - | - |
| 1777674079 | 11.67° C | 86% | 999 hPa | 0 mm | - | - | - |
| 1777673792 | 11.67° C | 86% | 998.9 hPa | 0 mm | - | - | - |
| 1777673465 | 11.67° C | 86% | 999 hPa | 0 mm | - | - | - |
| 1777673158 | 11.67° C | 84% | 999 hPa | 0 mm | - | - | - |
* Rain since midnight (hover to see other rain measurements)
** Current wind speed in m/s (hover to see current wind gust speed)